Location: Normal Heights
(32.7634°N, 117.1228°W)
Time: 11:29:48
(UTC+00:00)

Daily predictions for brighter satellites

Satellite Brightness Start Highest point End
(mag) Time Altitude Azimuth Time Altitude Azimuth Time Altitude Azimuth
COSMOS 2428 3.6 12:00:38 10° NW 12:05:22 28° WSW 12:10:06 10° SSW
CZ-4B R/B 4.5 12:02:42 10° NNE 12:07:42 49° E 12:12:33 10° S
Delta 2 Rocket 4.2 12:03:22 10° W 12:07:43 41° SSW 12:12:31 10° SE
CZ-4C R/B 4.2 12:04:10 10° SSE 12:08:23 61° ENE 12:12:43 10° N
Cosmos 2219 3.6 12:07:58 10° SW 12:13:25 49° WNW 12:18:52 10° N
Cosmos 1544 2.9 12:10:39 10° S 12:14:09 76° W 12:17:39 10° N
OAO 3 Rocket 3.4 12:10:15 10° W 12:15:11 73° N 12:20:04 10° ENE
